This demonstration page uses our WeatherBlox Daily Observations layout. Learn more.

Left ArrowRight Arrow

Hourly Observations for May 26, 2021

Temp ( °F °C ) Dew Point ( °F °C ) Humidity (%) Winds ( mph kmh ) Pressure ( in mb ) Visibility ( mi km ) Precip ( " mm )
12:53 am 00:53 Clear 45 7.2 42 5.6 90 90 NE 9 15 30.11 1020 10 16 0.00 0.00
1:53 am 01:53 Cloudy 45 7.2 42 5.6 90 90 ENE 12 19 30.10 1019 10 16 0.00 0.00
2:53 am 02:53 Clear 44 6.7 42 5.6 93 93 ENE 14 22 30.10 1019 10 16 0.00 0.00
3:53 am 03:53 Clear 43 6.1 41 5 93 93 E 13 20 30.09 1019 10 16 0.00 0.00
4:53 am 04:53 Clear 43 6.1 41 5 93 93 E 15 24 30.08 1019 10 16 0.00 0.00
5:53 am 05:53 Sunny 43 6.1 40 4.4 89 89 E 16 26 30.09 1019 10 16 0.00 0.00
6:53 am 06:53 Cloudy 43 6.1 41 5 93 93 E 18 30 30.10 1019 10 16 0.00 0.00
7:53 am 07:53 Mostly Sunny 45 7.2 41 5 86 86 E 17 28 30.11 1020 10 16 0.00 0.00
8:53 am 08:53 Mostly Sunny 48 8.9 43 6.1 83 83 E 17 28 30.11 1020 10 16 0.00 0.00
9:53 am 09:53 Mostly Cloudy 51 10.6 43 6.1 74 74 E 20 31 30.11 1020 10 16 0.00 0.00
10:53 am 10:53 Mostly Cloudy 51 10.6 41 5 69 69 E 22 35 30.12 1020 10 16 0.00 0.00
11:53 am 11:53 Cloudy 51 10.6 42 5.6 71 71 E 20 31 30.13 1020 10 16 0.00 0.00
12:53 pm 12:53 Cloudy 52 11.1 42 5.6 69 69 E 18 30 30.15 1021 10 16 0.00 0.00
1:53 pm 13:53 Mostly Cloudy 51 10.6 41 5 69 69 E 16 26 30.14 1021 10 16 0.00 0.00
2:50 pm 14:50 Cloudy 52 11 43 6 72 72 ESE 15 24 30.12 1020 10 16 0.00 0.00
2:53 pm 14:53 Cloudy 51 10.6 42 5.6 71 71 ESE 15 24 30.16 1021 10 16 0.00 0.00
3:13 pm 15:13 Cloudy 52 11.1 42 5.6 69 69 ESE 16 26 30.12 1020 10 16 0.00 0.00
3:53 pm 15:53 Cloudy 53 11.7 42 5.6 66 66 E 17 28 30.15 1021 10 16 0.00 0.00
4:53 pm 16:53 Cloudy 52 11.1 42 5.6 69 69 E 14 22 30.14 1021 10 16 0.00 0.00
5:53 pm 17:53 Mostly Sunny 52 11.1 42 5.6 69 69 E 16 26 30.15 1021 10 16 0.00 0.00
6:53 pm 18:53 Sunny 53 11.7 43 6.1 69 69 E 16 26 30.16 1021 10 16 0.00 0.00
7:53 pm 19:53 Mostly Cloudy 50 10 42 5.6 74 74 E 13 20 30.16 1021 10 16 0.00 0.00
8:04 pm 20:04 Mostly Cloudy 51 10.6 42 5.6 71 71 E 13 20 30.12 1020 10 16 0.00 0.00
8:29 pm 20:29 Cloudy 50 10 42 5.6 74 74 E 13 20 30.13 1020 10 16 0.00 0.00
8:53 pm 20:53 Mostly Cloudy 49 9.4 42 5.6 77 77 E 10 17 30.16 1021 10 16 0.00 0.00
9:10 pm 21:10 Mostly Cloudy 48 9 43 6 82 82 E 10 17 30.15 1021 10 16 0.00 0.00
9:42 pm 21:42 Cloudy 48 9 41 5 76 76 E 15 24 30.15 1021 10 16 0.00 0.00
9:53 pm 21:53 Cloudy 47 8.3 41 5 80 80 E 13 20 30.16 1021 10 16 0.00 0.00
10:53 pm 22:53 Cloudy 47 8.3 41 5 80 80 NE 7 11 30.18 1022 10 16 0.00 0.00
11:53 pm 23:53 Cloudy 47 8.3 42 5.6 83 83 ENE 7 11 30.17 1022 10 16 0.00 0.00

Powered by AerisWeather